[[{"header":{"parameterUnit":"m.s-1","parameterCategory":1,"la1":30.2991,"la2":30.254,"lo1":-89.0895,"lo2":-89.0444,"dy":0.0017,"dx":0.0017,"nx":28,"ny":28,"refTime":"2025-03-13T03:00:00:Z","depth":0,"parameterNumber":2,"parameterNumberName":"U-component_of_WINDS"},"data":[0,0,0,0,0,0,0,0,0,0,0,0,0,0,0,0,0,0,0,0,0,0,0,0,0,0,0,0,0,0,0,0,0,0,0,0,0,0,0,0,0,0,0,0,0,0,0,0,0,0,0,0,0,0,0,0,0,0,-1.0739,-1.0739,0,-1.0729,-1.0728,-1.0728,-1.0707,-1.0706,-1.0706,-1.0705,-1.0695,-1.0695,-1.0695,0,0,0,0,0,0,0,0,0,0,0,0,0,-1.0742,-1.0742,-1.0739,-1.0739,-1.0739,-1.0729,-1.0728,-1.0728,-1.0707,-1.0706,-1.0706,-1.0705,-1.0695,-1.0695,-1.0695,0,0,0,0,0,0,0,0,0,0,0,0,0,-1.0737,-1.0742,-1.074,-1.0727,-1.0726,-1.0729,-1.0728,-1.0728,-1.0707,-1.0706,-1.0706,-1.0705,-1.0695,-1.0695,-1.0695,-1.0709,0,0,-1.0696,-1.0696,0,0,0,0,0,0,0,0,-1.0738,-1.0737,-1.0729,-1.0728,-1.0727,-1.0718,-1.0726,-1.0722,-1.0707,-1.0714,-1.0705,-1.0705,-1.0703,-1.0703,-1.0702,-1.0709,-1.0708,-1.0696,-1.0696,-1.0696,-1.0696,0,0,0,0,0,0,0,-1.0738,-1.0738,-1.0735,-1.0729,-1.0728,-1.0722,-1.0721,-1.0725,-1.0713,-1.0713,-1.0712,-1.0711,-1.0703,-1.0702,-1.0702,-1.0708,-1.0696,-1.0696,-1.0696,-1.0696,-1.0726,-1.0726,0,0,0,0,0,0,-1.074,-1.0738,-1.0736,-1.0735,-1.0731,-1.0723,-1.0721,-1.0722,-1.0712,-1.071,-1.0711,-1.071,-1.0702,-1.0702,-1.0701,-1.0717,-1.0696,-1.0696,-1.0696,-1.0725,-1.0726,-1.0727,0,0,0,0,0,0,-1.074,-1.074,-1.0736,-1.0736,-1.0735,-1.0724,-1.0724,-1.0722,-1.0721,-1.0711,-1.0709,-1.0713,-1.0701,-1.0701,-1.0707,-1.0716,-1.0696,-1.0696,-1.0724,-1.0725,-1.0726,-1.0748,0,0,0,0,0,0,-1.074,-1.074,-1.0745,-1.0736,-1.0735,-1.0742,-1.0725,-1.0722,-1.0722,-1.0719,-1.0712,-1.071,-1.0701,-1.0707,-1.0708,-1.0716,-1.0697,-1.0723,-1.0725,-1.0726,-1.0747,-1.075,-1.0753,0,0,0,0,0,-1.0741,-1.0752,-1.0746,-1.0745,-1.0741,-1.0743,-1.0742,-1.0731,-1.0722,-1.0727,-1.0721,-1.071,-1.0715,-1.0708,-1.0708,-1.0717,-1.0723,-1.0724,-1.0726,-1.0745,-1.0749,-1.0752,0,0,0,0,0,0,-1.0763,-1.0751,-1.0743,-1.0752,-1.0749,-1.0739,-1.0745,-1.0736,-1.0735,-1.0733,-1.072,-1.0718,-1.0726,-1.0722,-1.0714,-1.073,-1.0717,-1.0719,-1.0732,-1.0736,-1.0739,-1.0739,-1.0697,0,0,0,0,0,-1.0768,-1.077,-1.076,-1.0769,-1.0767,-1.0757,-1.0757,-1.0749,-1.0745,-1.0743,-1.0737,-1.0733,-1.0734,-1.0735,-1.0735,-1.0746,-1.0744,-1.0752,-1.0755,-1.0758,-1.0759,-1.0765,-1.0768,-1.0732,-1.0732,-1.0732,0,0,-1.0781,-1.0774,-1.0776,-1.0773,-1.0769,-1.0772,-1.0755,-1.0759,-1.076,-1.0744,-1.0749,-1.0744,-1.074,-1.0748,-1.0752,-1.0745,-1.0769,-1.076,-1.0762,-1.0762,-1.0767,-1.077,-1.0773,-1.0733,-1.0732,-1.0732,0,0,-1.0804,-1.0799,-1.0806,-1.0803,-1.0797,-1.079,-1.0791,-1.0783,-1.0779,-1.0785,-1.0772,-1.0774,-1.0776,-1.0773,-1.0772,-1.0794,-1.0784,-1.0795,-1.081,-1.0815,-1.0818,-1.0821,-1.0828,-1.0831,-1.0796,-1.0796,-1.0796,0,-1.0819,-1.0822,-1.0811,-1.0815,-1.0814,-1.0798,-1.0805,-1.0803,-1.0798,-1.0797,-1.079,-1.0792,-1.0787,-1.0795,-1.0801,-1.08,-1.0802,-1.0795,-1.0819,-1.0821,-1.0823,-1.083,-1.0833,-1.0798,-1.0797,-1.0797,-1.0797,0,-1.0842,-1.0844,-1.085,-1.0845,-1.0845,-1.0851,-1.084,-1.0841,-1.0833,-1.0827,-1.0833,-1.0827,-1.0826,-1.0827,-1.082,-1.0834,-1.083,-1.0821,-1.0808,-1.0828,-1.0835,-1.0837,-1.0799,-1.0799,-1.0798,-1.0798,0,0,-1.0878,-1.0867,-1.0869,-1.0867,-1.086,-1.0861,-1.0866,-1.0865,-1.0866,-1.0863,-1.0867,-1.0869,-1.086,-1.0859,-1.0851,-1.0856,-1.0874,-1.0846,-1.0846,-1.0851,-1.0889,-1.0895,-1.0898,-1.0867,-1.0868,-1.0868,-1.0889,0,-1.0899,-1.0906,-1.0896,-1.0906,-1.0908,-1.0894,-1.0898,-1.0894,-1.0888,-1.0889,-1.0883,-1.0885,-1.0874,-1.0873,-1.0877,-1.0871,-1.0881,-1.0869,-1.0871,-1.0871,-1.0872,-1.0902,-1.0909,-1.0928,-1.0891,-1.0892,-1.0892,0,-1.0925,-1.0923,-1.0932,-1.0925,-1.0925,-1.0929,-1.0927,-1.0928,-1.0924,-1.0919,-1.0918,-1.0908,-1.0913,-1.0901,-1.0907,-1.0899,-1.0899,-1.0896,-1.0897,-1.0896,-1.0882,-1.0901,-1.0934,-1.0937,-1.0896,-1.0896,-1.0895,0,-1.095,-1.095,-1.0955,-1.0954,-1.0945,-1.0948,-1.0944,-1.0939,-1.0939,-1.0937,-1.0937,-1.0936,-1.0936,-1.0935,-1.0926,-1.0918,-1.0933,-1.092,-1.0929,-1.0929,-1.0932,-1.0932,-1.0965,-1.0934,-1.0933,-1.0933,-1.0933,0,-1.0974,-1.098,-1.0966,-1.097,-1.0977,-1.0965,-1.0972,-1.0967,-1.0963,-1.0965,-1.0953,-1.0956,-1.0944,-1.0945,-1.0938,-1.0944,-1.0944,-1.0941,-1.0938,-1.0941,-1.0942,-1.0941,-1.0939,-1.0934,-1.0934,-1.0934,-1.0934,0,-1.1003,-1.0993,-1.0999,-1.099,-1.0988,-1.0993,-1.0986,-1.0989,-1.0982,-1.0986,-1.0986,-1.0976,-1.0977,-1.0968,-1.0967,-1.0963,-1.0972,-1.0967,-1.0973,-1.0971,-1.0981,-1.098,-1.1014,-1.1018,-1.0984,-1.0985,-1.0985,0,-1.1019,-1.1023,-1.1015,-1.1015,-1.1012,-1.1014,-1.1013,-1.1002,-1.1002,-1.0998,-1.1001,-1.1001,-1.1001,-1.1003,-1.0996,-1.0995,-1.0991,-1.1003,-1.0991,-1.0993,-1.099,-1.099,-1.099,-1.1005,-1.1006,-1.1006,-1.1006,0,-1.1048,-1.1043,-1.1043,-1.1041,-1.1041,-1.1039,-1.1036,-1.1038,-1.1026,-1.1026,-1.1027,-1.1027,-1.1026,-1.1026,-1.1024,-1.1021,-1.1012,-1.101,-1.1012,-1.1015,-1.1018,-1.1016,-1.0979,-1.1009,-1.1009,-1.1009,-1.1009,-1.1009,-1.107,-1.1074,-1.1068,-1.1068,-1.1065,-1.1063,-1.1065,-1.1059,-1.1059,-1.1058,-1.1051,-1.1053,-1.1049,-1.1045,-1.1043,-1.1044,-1.1038,-1.1041,-1.1042,-1.1043,-1.1044,-1.1018,-1.1044,-1.1044,-1.1044,-1.1043,-1.1043,0,-1.1099,-1.1094,-1.1095,-1.1091,-1.1091,-1.1082,-1.1079,-1.108,-1.1081,-1.1078,-1.1078,-1.1078,-1.1078,-1.1072,-1.1071,-1.1073,-1.1069,-1.1073,-1.1073,-1.1072,-1.105,-1.1048,-1.1077,-1.1077,-1.1077,-1.1077,-1.1077,-1.1077,-1.1113,-1.1118,-1.1113,-1.1116,-1.1112,-1.1113,-1.1112,-1.111,-1.1107,-1.1109,-1.1108,-1.1104,-1.1099,-1.1098,-1.1098,-1.1095,-1.1096,-1.1101,-1.1098,-1.1077,-1.1074,-1.1071,-1.1069,-1.1102,-1.1102,-1.112,-1.112,-1.112]},{"header":{"parameterUnit":"m.s-1","parameterCategory":1,"la1":30.2991,"la2":30.254,"lo1":-89.0895,"lo2":-89.0444,"dy":0.0017,"dx":0.0017,"nx":28,"ny":28,"refTime":"2025-03-13T03:00:00:Z","depth":0,"parameterNumber":3,"parameterNumberName":"V-component_of_WINDS"},"data":[0,0,0,0,0,0,0,0,0,0,0,0,0,0,0,0,0,0,0,0,0,0,0,0,0,0,0,0,0,0,0,0,0,0,0,0,0,0,0,0,0,0,0,0,0,0,0,0,0,0,0,0,0,0,0,0,0,0,3.8921,3.8922,0,3.9029,3.9031,3.9032,3.9044,3.9043,3.9042,3.9041,3.9147,3.915,3.9154,0,0,0,0,0,0,0,0,0,0,0,0,0,3.872,3.8723,3.8921,3.8922,3.8924,3.9029,3.9031,3.9032,3.9045,3.9043,3.9042,3.9041,3.9145,3.915,3.9154,0,0,0,0,0,0,0,0,0,0,0,0,0,3.8815,3.8724,3.8921,3.8943,3.8946,3.9029,3.9031,3.9032,3.9045,3.9043,3.9042,3.904,3.9144,3.9149,3.9155,3.9222,0,0,3.9172,3.9175,0,0,0,0,0,0,0,0,3.881,3.8823,3.8938,3.8941,3.8945,3.9022,3.8998,3.9096,3.9045,3.9007,3.9041,3.904,3.9106,3.9115,3.9138,3.9227,3.9231,3.9173,3.9176,3.9179,3.918,0,0,0,0,0,0,0,3.8803,3.8818,3.8964,3.894,3.8944,3.8945,3.8957,3.9017,3.9064,3.901,3.9012,3.9024,3.9108,3.9133,3.9141,3.9233,3.9173,3.9178,3.9181,3.9184,3.9381,3.9383,0,0,0,0,0,0,3.8793,3.8812,3.896,3.8967,3.8872,3.895,3.8964,3.8999,3.9063,3.9072,3.9026,3.9025,3.9124,3.9134,3.9145,3.9227,3.9179,3.9184,3.9187,3.9379,3.9381,3.9383,0,0,0,0,0,0,3.8789,3.8806,3.8956,3.889,3.8909,3.8956,3.8995,3.9002,3.9027,3.9075,3.9083,3.9043,3.9123,3.9137,3.9203,3.9231,3.9187,3.9192,3.9377,3.938,3.9382,3.9393,0,0,0,0,0,0,3.8783,3.8805,3.8832,3.8891,3.8913,3.9014,3.8997,3.9005,3.9038,3.9037,3.9094,3.9101,3.9123,3.9194,3.9209,3.9238,3.9196,3.9375,3.9378,3.9382,3.939,3.9396,3.94,0,0,0,0,0,3.8776,3.8829,3.8833,3.8851,3.8948,3.9016,3.9028,3.9053,3.904,3.9067,3.9097,3.91,3.9226,3.9201,3.9217,3.9249,3.9373,3.9377,3.9381,3.9388,3.9395,3.94,0,0,0,0,0,0,3.8771,3.8837,3.8842,3.8917,3.8961,3.9018,3.9052,3.9059,3.9107,3.9104,3.9131,3.9144,3.9209,3.9235,3.9207,3.9317,3.9298,3.9305,3.9297,3.9304,3.9309,3.9302,3.9201,0,0,0,0,0,3.8778,3.883,3.8884,3.8945,3.8967,3.9006,3.9036,3.9052,3.9098,3.9116,3.9151,3.9194,3.9243,3.9275,3.9323,3.9394,3.9406,3.9424,3.9429,3.9433,3.9439,3.9478,3.9487,3.9397,3.9397,3.9397,0,0,3.8794,3.8837,3.8867,3.8945,3.8981,3.9031,3.9021,3.9075,3.9113,3.9123,3.9189,3.9216,3.9265,3.9335,3.9367,3.9358,3.9466,3.9438,3.9441,3.9445,3.9483,3.9492,3.9499,3.94,3.9399,3.9399,0,0,3.885,3.8888,3.8942,3.8979,3.9034,3.906,3.9073,3.9129,3.9148,3.9215,3.9224,3.9267,3.9352,3.9387,3.9416,3.9484,3.9488,3.9499,3.9525,3.9564,3.9571,3.9577,3.9602,3.961,3.9505,3.9505,3.9505,0,3.8863,3.8942,3.8969,3.9024,3.9057,3.907,3.9125,3.9158,3.9225,3.9247,3.9237,3.9344,3.9378,3.9456,3.9473,3.9495,3.951,3.9493,3.9568,3.9574,3.9581,3.9605,3.9614,3.9506,3.9506,3.9506,3.9506,0,3.8954,3.9009,3.9046,3.9113,3.915,3.9204,3.9238,3.9272,3.9285,3.9311,3.9378,3.9419,3.9476,3.9495,3.9507,3.9574,3.9568,3.9562,3.9544,3.959,3.9613,3.9622,3.9507,3.9507,3.9507,3.9506,0,0,3.901,3.9092,3.9105,3.9136,3.9197,3.9239,3.9293,3.935,3.9379,3.9424,3.947,3.9541,3.9537,3.9569,3.9585,3.9618,3.967,3.9609,3.9611,3.9619,3.9747,3.9751,3.9761,3.9673,3.9675,3.9676,3.9743,0,3.9073,3.9173,3.9199,3.9282,3.9333,3.9346,3.9393,3.9435,3.946,3.9505,3.9533,3.9583,3.9574,3.9593,3.9627,3.9657,3.9696,3.9652,3.9715,3.9717,3.9703,3.9773,3.9778,3.9839,3.9752,3.9754,3.9755,0,3.916,3.921,3.9299,3.9355,3.9377,3.9419,3.9473,3.9517,3.9564,3.958,3.9617,3.9629,3.9684,3.9663,3.9739,3.9708,3.9735,3.9753,3.9756,3.9764,3.9739,3.9783,3.9859,3.9868,3.9769,3.9768,3.9767,0,3.9193,3.9281,3.9346,3.9372,3.9438,3.9467,3.9496,3.9542,3.9574,3.9621,3.9643,3.9695,3.9723,3.9762,3.9788,3.977,3.9862,3.9842,3.9876,3.9875,3.9895,3.9894,3.9977,3.9911,3.9911,3.9911,3.9911,0,3.9261,3.9315,3.9362,3.9402,3.9463,3.9491,3.955,3.9578,3.9619,3.9663,3.9677,3.9718,3.9749,3.9794,3.9814,3.9874,3.9886,3.99,3.9905,3.99,3.9898,3.9918,3.9914,3.9914,3.9913,3.9912,3.9912,0,3.9308,3.9341,3.9413,3.947,3.9486,3.9528,3.9576,3.9614,3.964,3.9697,3.9711,3.9751,3.9805,3.9835,3.9901,3.9914,3.9982,3.9984,3.9966,3.9969,4.0001,3.9998,4.0101,4.0116,4.0039,4.004,4.004,0,3.9349,3.9392,3.9454,3.9486,3.9515,3.9566,3.96,3.9629,3.9663,3.9721,3.9752,3.9807,3.9852,3.9937,3.9971,4.0022,4.0026,4.0058,4.0033,4.0026,4.0027,4.0024,4.0028,4.0063,4.0063,4.0064,4.0064,0,3.942,3.9435,3.9484,3.954,3.9581,3.9625,3.9669,3.9694,3.973,3.9767,3.9824,3.9859,3.9928,3.9982,4.0035,4.0063,4.0069,4.0072,4.0082,4.0078,4.0066,4.0073,3.9979,4.0069,4.0069,4.0069,4.0068,4.0068,3.9466,3.9504,3.9554,3.9609,3.9645,3.9686,3.9725,3.9757,3.9805,3.9865,3.9878,3.9937,3.9982,4.0055,4.0084,4.013,4.0123,4.0138,4.0142,4.0146,4.0147,4.0058,4.0139,4.0139,4.0139,4.0139,4.0139,0,3.9538,3.9571,3.9621,3.9683,3.9725,3.9729,3.9778,3.9813,3.9866,3.9908,3.9953,4.0017,4.0069,4.0108,4.0161,4.019,4.0194,4.0203,4.0201,4.0207,4.015,4.0136,4.0198,4.0198,4.0198,4.0198,4.0198,4.0198,3.958,3.9645,3.9666,3.9749,3.978,3.984,3.9868,3.9905,3.9939,4.0011,4.0055,4.008,4.0121,4.0177,4.0225,4.0235,4.0253,4.0262,4.0272,4.0218,4.0211,4.0205,4.0192,4.0266,4.0266,4.0326,4.0326,4.0327]}]]